TimeEDT,TemperatureF,Dew PointF,Humidity,Sea Level PressureIn,VisibilityMPH,Wind Direction,Wind SpeedMPH,Gust SpeedMPH,PrecipitationIn,Events,Conditions,WindDirDegrees,DateUTC
12:54 AM,60.1,48.9,67,30.16,10.0,SW,12.7,-,N/A,,Scattered Clouds,220,2013-09-10 04:54:00
1:54 AM,60.1,48.9,67,30.15,10.0,SW,11.5,-,N/A,,Scattered Clouds,220,2013-09-10 05:54:00
2:54 AM,59.0,50.0,72,30.16,10.0,SSW,6.9,-,N/A,,Clear,210,2013-09-10 06:54:00
3:54 AM,60.1,52.0,75,30.14,10.0,SSW,6.9,-,N/A,,Partly Cloudy,200,2013-09-10 07:54:00
4:54 AM,61.0,53.1,75,30.13,10.0,SSW,8.1,-,N/A,,Overcast,200,2013-09-10 08:54:00
5:54 AM,63.0,54.0,72,30.13,10.0,SW,12.7,-,N/A,,Overcast,220,2013-09-10 09:54:00
6:54 AM,64.0,55.0,73,30.14,10.0,SW,13.8,-,N/A,,Overcast,220,2013-09-10 10:54:00
7:07 AM,64.4,55.4,73,30.14,10.0,SSW,12.7,-,N/A,,Overcast,210,2013-09-10 11:07:00
7:54 AM,64.9,55.9,73,30.13,10.0,SW,13.8,-,N/A,,Overcast,220,2013-09-10 11:54:00
8:54 AM,66.0,57.9,75,30.13,10.0,SSW,16.1,-,N/A,,Overcast,210,2013-09-10 12:54:00
9:10 AM,66.2,57.2,73,30.13,10.0,SW,16.1,24.2,N/A,,Overcast,220,2013-09-10 13:10:00
9:54 AM,69.1,59.0,70,30.12,10.0,SW,12.7,21.9,N/A,,Overcast,220,2013-09-10 13:54:00
10:54 AM,70.0,61.0,73,30.11,10.0,SW,20.7,27.6,N/A,,Overcast,230,2013-09-10 14:54:00
11:54 AM,70.0,62.1,76,30.09,10.0,SW,17.3,-,N/A,,Overcast,220,2013-09-10 15:54:00
12:54 PM,68.0,64.0,87,30.05,4.0,SSW,16.1,-,0.03,Rain,Light Rain,200,2013-09-10 16:54:00
1:54 PM,70.0,66.0,87,30.04,-9999.0,SW,12.7,-,N/A,,Unknown,220,2013-09-10 17:54:00
2:18 PM,71.6,66.2,83,30.05,10.0,SW,8.1,-,N/A,,Overcast,220,2013-09-10 18:18:00
2:25 PM,71.6,66.2,83,30.05,10.0,SW,12.7,18.4,N/A,,Overcast,230,2013-09-10 18:25:00
2:54 PM,72.0,66.0,81,30.06,10.0,WSW,6.9,-,0.00,,Overcast,240,2013-09-10 18:54:00
3:05 PM,73.4,66.2,78,30.06,10.0,WSW,9.2,-,N/A,,Overcast,240,2013-09-10 19:05:00
3:54 PM,75.9,66.9,74,30.05,10.0,SSW,15.0,19.6,N/A,,Mostly Cloudy,210,2013-09-10 19:54:00
4:54 PM,75.9,66.9,74,30.04,10.0,SW,13.8,-,N/A,,Mostly Cloudy,230,2013-09-10 20:54:00
5:00 PM,75.2,66.2,73,30.04,10.0,SW,9.2,20.7,N/A,,Mostly Cloudy,220,2013-09-10 21:00:00
5:54 PM,75.9,66.9,74,30.03,10.0,SW,13.8,-,N/A,,Mostly Cloudy,220,2013-09-10 21:54:00
6:35 PM,75.2,66.2,73,30.04,10.0,SW,10.4,-,N/A,,Overcast,220,2013-09-10 22:35:00
6:54 PM,75.0,66.9,76,30.04,10.0,SW,12.7,-,N/A,,Overcast,230,2013-09-10 22:54:00
7:54 PM,73.9,68.0,82,30.06,10.0,SW,8.1,-,N/A,,Overcast,220,2013-09-10 23:54:00
8:54 PM,71.1,66.0,84,30.09,9.0,SE,4.6,-,N/A,,Overcast,140,2013-09-11 00:54:00
9:54 PM,70.0,66.0,87,30.09,10.0,SSE,8.1,-,N/A,,Overcast,160,2013-09-11 01:54:00
10:54 PM,70.0,66.0,87,30.08,10.0,South,8.1,-,N/A,,Overcast,170,2013-09-11 02:54:00
11:54 PM,69.1,66.0,90,30.08,10.0,South,8.1,-,N/A,,Overcast,170,2013-09-11 03:54:00